{"data":{"norad_id":59897,"intl_designator":"2024-100N","name":"STARLINK-31928","alt_names":[],"object_type":"PAYLOAD","status":"ACTIVE","operator":null,"country":"US","launch_date":"2024-05-28","launch_site_code":"AFETR","launch_vehicle":null,"mission":null,"orbit_class":"UNKNOWN","rcs_meters":null,"size_class":null,"mass_kg":null,"dimensions":null,"purposes":["comms"],"wikipedia_slug":null,"has_3d_model":false,"image_url":null,"decayed_at":null,"tle_current":{"epoch":"2026-05-25T03:02:48.573312Z","epoch_age_seconds":60775,"freshness":"FRESH","line1":"1 59897U 24100N   26145.12695108  .00000776  00000+0  37730-4 0  9998","line2":"2 59897  43.0042  54.0082 0001065 276.6729  83.4001 15.27584124112743","mean_motion":15.27584124,"eccentricity":0.0001065,"inclination_deg":43.0042,"raan_deg":54.0082,"arg_perigee_deg":276.6729,"mean_anomaly_deg":83.4001,"bstar":3.773e-5,"rev_number":11274,"period_min":94.266494222874,"perigee_km":482.30603232374,"apogee_km":483.76746233192,"semimajor_km":6861.1737473278,"source":"CELESTRAK","updated_at":"2026-05-25T13:38:19.118669Z"}}}